sat.trackr.live / text

‹ back to catalog

STARLINK-31883

NORAD 60020 · 2024-111E

PAYLOAD ACTIVE UNKNOWN

§ Identity

Operator
Country
US
Launch date
2024-06-08
Launch site
AFETR
Launch vehicle
Mass (kg)
RCS (m²)

Purposes: comms

External: N2YO · Heavens-Above · Gunter

§ Orbital elements

Epoch: 2026-09-21T22:44:50.542080Z

Period
93.85 min
Inclination
53.1584°
Eccentricity
0.0001532
Mean motion
15.34388623 rev/d
Perigee alt
461.7 km
Apogee alt
463.8 km
Semi-major
6,840.9 km
B*
1.0487e-5
RAAN
243.1658°
Arg perigee
97.8777°
Mean anomaly
262.2399°
Rev number
12,904

§ Raw data

STARLINK-318831 60020U 24111E   26264.94780720 -.00000022  00000+0  10487-4 0  99922 60020  53.1584 243.1658 0001532  97.8777 262.2399 15.34388623129043

JSON: /api/v1/satellites/60020 · /tle

For live sub-satellite position, see the globe view (requires WebGL).

§ Visibility from observer

Set your observer location to see the next 7 days of passes ≥ 10°. The values pass through the URL so the page stays shareable.

No JS? Fill the form by hand. The geolocation button needs JavaScript.